When you browse on this site, cookies collect data to enhance your experience and personalize the content and advertising you see.
Visit our Privacy Policy to learn more. By continuing to use the site, you agree to this use of cookies and data.
  • In Austria
  • List of Countries
  • For 7 days
  • Water Temperature
  • Satellite Maps
  • Weather Map
  • News
  • Weather Widgets
  • user-avatar
    Login

    Hourly Weather Shusha

    Today, 21 March, Thursday

    Time Temperature Precipitation Wind Pressure Humidity
    00:00 +2°C° 0.5 mm 0 mps 659 mmHg 93%
    01:00 +2°C° 0.5 mm 0 mps 659 mmHg 93%
    02:00 +1°C° 0.5 mm 0 mps 659 mmHg 94%
    03:00 +1°C° 0.5 mm 0 mps 659 mmHg 94%
    04:00 +1°C° 0.4 mm 0 mps 659 mmHg 94%
    05:00 +1°C° 0.4 mm 0 mps 659 mmHg 94%
    06:00 +1°C° 0.4 mm 0 mps 659 mmHg 94%
    07:00 +2°C° 0.2 mm 0 mps 659 mmHg 91%
    08:00 +3°C° 0.2 mm 1 mps 660 mmHg 89%
    09:00 +4°C° 0.2 mm 1 mps 660 mmHg 86%
    10:00 +5°C° 0.1 mm 1 mps 660 mmHg 83%
    11:00 +6°C° 0.1 mm 1 mps 660 mmHg 81%
    12:00 +6°C° 0.1 mm 2 mps 660 mmHg 79%
    13:00 +6°C° 0 mm 2 mps 660 mmHg 77%
    14:00 +6°C° 0 mm 2 mps 660 mmHg 75%
    15:00 +7°C° 0 mm 2 mps 659 mmHg 73%
    16:00 +6°C° 0 mm 2 mps 659 mmHg 76%
    17:00 +5°C° 0 mm 2 mps 659 mmHg 79%
    18:00 +6°C° 0 mm 1 mps 659 mmHg 82%
    19:00 +5°C° 0.1 mm 1 mps 659 mmHg 84%
    20:00 +5°C° 0.1 mm 1 mps 659 mmHg 85%
    21:00 +5°C° 0.1 mm 1 mps 660 mmHg 86%
    22:00 +4°C° 0.2 mm 0 mps 660 mmHg 85%
    23:00 +3°C° 0.2 mm 0 mps 660 mmHg 84%

    Tomorrow, 22 March, Friday

    Time Temperature Precipitation Wind Pressure Humidity
    00:00 +3°C° 0.2 mm 0 mps 660 mmHg 83%
    01:00 +4°C° 0.1 mm 1 mps 660 mmHg 83%
    02:00 +4°C° 0.1 mm 1 mps 659 mmHg 83%
    03:00 +4°C° 0.1 mm 1 mps 659 mmHg 83%
    04:00 +4°C° 0.1 mm 1 mps 659 mmHg 83%
    05:00 +3°C° 0.1 mm 1 mps 659 mmHg 84%
    06:00 +2°C° 0.1 mm 0 mps 659 mmHg 84%
    07:00 +4°C° 0.1 mm 1 mps 660 mmHg 82%
    08:00 +5°C° 0.1 mm 1 mps 660 mmHg 80%
    09:00 +6°C° 0.1 mm 1 mps 660 mmHg 78%
    10:00 +5°C° 0.2 mm 2 mps 660 mmHg 77%
    11:00 +6°C° 0.2 mm 2 mps 660 mmHg 77%
    12:00 +6°C° 0.2 mm 2 mps 659 mmHg 76%
    13:00 +6°C° 0.4 mm 2 mps 659 mmHg 76%
    14:00 +6°C° 0.4 mm 2 mps 658 mmHg 76%
    15:00 +6°C° 0.4 mm 2 mps 658 mmHg 76%
    16:00 +6°C° 0.5 mm 2 mps 658 mmHg 79%
    17:00 +7°C° 0.5 mm 1 mps 658 mmHg 81%
    18:00 +6°C° 0.5 mm 1 mps 657 mmHg 84%
    19:00 +6°C° 0.3 mm 1 mps 658 mmHg 85%
    20:00 +5°C° 0.3 mm 0 mps 658 mmHg 87%
    21:00 +4°C° 0.3 mm 0 mps 659 mmHg 88%
    22:00 +4°C° 0.3 mm 0 mps 659 mmHg 86%
    23:00 +5°C° 0.3 mm 1 mps 659 mmHg 85%

    Day after tomorrow, 23 March, Saturday

    Time Temperature Precipitation Wind Pressure Humidity
    00:00 +4°C° 0.3 mm 1 mps 659 mmHg 83%
    01:00 +4°C° 0.1 mm 1 mps 659 mmHg 82%
    02:00 +3°C° 0.1 mm 1 mps 659 mmHg 81%
    03:00 +3°C° 0.1 mm 1 mps 659 mmHg 80%
    04:00 +3°C° 0 mm 1 mps 659 mmHg 80%
    05:00 +2°C° 0 mm 1 mps 659 mmHg 80%
    06:00 +1°C° 0 mm 0 mps 659 mmHg 80%
    07:00 +3°C° 0 mm 1 mps 659 mmHg 76%
    08:00 +4°C° 0 mm 1 mps 659 mmHg 73%
    09:00 +4°C° 0 mm 2 mps 659 mmHg 69%
    10:00 +5°C° 0 mm 2 mps 659 mmHg 67%
    11:00 +5°C° 0 mm 2 mps 658 mmHg 65%
    12:00 +6°C° 0 mm 2 mps 657 mmHg 63%
    13:00 +7°C° 0 mm 3 mps 657 mmHg 63%
    14:00 +7°C° 0 mm 3 mps 656 mmHg 62%
    15:00 +7°C° 0 mm 3 mps 656 mmHg 62%
    16:00 +6°C° 0 mm 2 mps 655 mmHg 66%
    17:00 +5°C° 0 mm 2 mps 655 mmHg 71%
    18:00 +4°C° 0 mm 2 mps 655 mmHg 76%
    19:00 +5°C° 0 mm 1 mps 655 mmHg 77%
    20:00 +5°C° 0 mm 1 mps 655 mmHg 78%
    21:00 +4°C° 0 mm 1 mps 655 mmHg 80%
    22:00 +4°C° 0 mm 1 mps 655 mmHg 78%
    23:00 +4°C° 0 mm 1 mps 654 mmHg 77%

    24 March, Sunday

    Time Temperature Precipitation Wind Pressure Humidity
    00:00 +3°C° 0 mm 1 mps 654 mmHg 75%
    01:00 +3°C° 0 mm 1 mps 654 mmHg 75%
    02:00 +3°C° 0 mm 1 mps 653 mmHg 74%
    03:00 +2°C° 0 mm 1 mps 653 mmHg 74%
    04:00 +2°C° 0 mm 1 mps 653 mmHg 74%
    05:00 +2°C° 0 mm 1 mps 653 mmHg 75%
    06:00 +2°C° 0 mm 1 mps 653 mmHg 75%
    07:00 +3°C° 0 mm 1 mps 653 mmHg 71%
    08:00 +3°C° 0 mm 2 mps 653 mmHg 66%
    09:00 +4°C° 0 mm 2 mps 653 mmHg 61%
    10:00 +4°C° 0 mm 3 mps 653 mmHg 62%
    11:00 +4°C° 0 mm 3 mps 653 mmHg 62%
    12:00 +4°C° 0 mm 3 mps 653 mmHg 62%
    13:00 +4°C° 0.2 mm 4 mps 652 mmHg 64%
    14:00 +3°C° 0.2 mm 4 mps 652 mmHg 67%
    15:00 +3°C° 0.2 mm 4 mps 651 mmHg 69%
    16:00 +2°C° 0.8 mm 3 mps 652 mmHg 72%
    17:00 +1°C° 0.8 mm 3 mps 652 mmHg 75%
    18:00 +1°C° 0.8 mm 2 mps 652 mmHg 78%
    19:00 +1°C° 0.9 mm 2 mps 653 mmHg 81%
    20:00 +2°C° 0.9 mm 1 mps 653 mmHg 83%
    21:00 +1°C° 0.9 mm 1 mps 654 mmHg 85%
    22:00 +1°C° 0.5 mm 1 mps 654 mmHg 86%
    23:00 +1°C° 0.5 mm 1 mps 654 mmHg 88%

    25 March, Monday

    Time Temperature Precipitation Wind Pressure Humidity
    00:00 +1°C° 0.5 mm 1 mps 654 mmHg 89%
    01:00 +1°C° 0.7 mm 1 mps 654 mmHg 89%
    02:00 +1°C° 0.7 mm 1 mps 654 mmHg 89%
    03:00 +1°C° 0.7 mm 1 mps 654 mmHg 90%
    04:00 0°C° 0.9 mm 1 mps 655 mmHg 90%
    05:00 0°C° 0.9 mm 1 mps 655 mmHg 91%
    06:00 0°C° 0.9 mm 1 mps 655 mmHg 92%
    07:00 0°C° 0.7 mm 1 mps 656 mmHg 91%
    08:00 +1°C° 0.7 mm 1 mps 656 mmHg 91%
    09:00 +1°C° 0.7 mm 1 mps 657 mmHg 91%
    10:00 -1°C° 0.4 mm 2 mps 657 mmHg 90%
    11:00 -1°C° 0.4 mm 2 mps 657 mmHg 90%
    12:00 +1°C° 0.4 mm 2 mps 657 mmHg 90%
    13:00 +1°C° 0.3 mm 2 mps 657 mmHg 89%
    14:00 +1°C° 0.3 mm 2 mps 657 mmHg 88%
    15:00 +1°C° 0.3 mm 2 mps 657 mmHg 88%
    16:00 +1°C° 0.2 mm 2 mps 657 mmHg 89%
    17:00 +1°C° 0.2 mm 2 mps 657 mmHg 90%
    18:00 +1°C° 0.2 mm 2 mps 658 mmHg 91%
    19:00 -1°C° 0.2 mm 2 mps 658 mmHg 92%
    20:00 -1°C° 0.2 mm 2 mps 658 mmHg 92%
    21:00 -1°C° 0.2 mm 2 mps 659 mmHg 92%
    22:00 +1°C° 0.1 mm 1 mps 659 mmHg 92%
    23:00 0°C° 0.1 mm 1 mps 658 mmHg 93%

    26 March, Tuesday

    Time Temperature Precipitation Wind Pressure Humidity
    00:00 0°C° 0.1 mm 1 mps 658 mmHg 93%
    01:00 0°C° 0.1 mm 1 mps 658 mmHg 93%
    02:00 0°C° 0.1 mm 1 mps 658 mmHg 93%
    03:00 -1°C° 0.1 mm 1 mps 657 mmHg 93%
    04:00 -1°C° 0.1 mm 1 mps 657 mmHg 93%
    05:00 -1°C° 0.1 mm 1 mps 658 mmHg 94%
    06:00 -2°C° 0.1 mm 0 mps 658 mmHg 94%
    07:00 0°C° 0.1 mm 1 mps 658 mmHg 91%
    08:00 +1°C° 0.1 mm 1 mps 658 mmHg 89%
    09:00 +1°C° 0.1 mm 2 mps 658 mmHg 86%
    10:00 +1°C° 0.3 mm 2 mps 658 mmHg 85%
    11:00 +1°C° 0.3 mm 2 mps 658 mmHg 83%
    12:00 +1°C° 0.3 mm 2 mps 658 mmHg 82%
    13:00 +2°C° 0.3 mm 2 mps 657 mmHg 82%
    14:00 +2°C° 0.3 mm 2 mps 657 mmHg 81%
    15:00 +2°C° 0.3 mm 2 mps 656 mmHg 81%
    16:00 +2°C° 0.1 mm 2 mps 656 mmHg 83%
    17:00 +3°C° 0.1 mm 1 mps 656 mmHg 85%
    18:00 +2°C° 0.1 mm 1 mps 656 mmHg 87%
    19:00 +2°C° 0.1 mm 1 mps 656 mmHg 88%
    20:00 +1°C° 0.1 mm 1 mps 657 mmHg 89%
    21:00 0°C° 0.1 mm 0 mps 657 mmHg 90%
    22:00 0°C° 0 mm 0 mps 656 mmHg 89%
    23:00 0°C° 0 mm 0 mps 656 mmHg 88%
    Show more